ANS1990 SABE-SAVC

Flight info

Callsign ANS1990
Flight time 2h 26m
Altitude 34000
Route PAL9 GBE UT694 IREMO UP664 GATUD GATU2U
Aircraft MD83/M-SDFGIRWY/S

Departure

Time 2026-05-04 19:22
Airport Aeroparque Jorge Newbery (SABE)

Arrival

Time 2026-05-04 21:49
Airport General Enrique Mosconi International Airport (SAVC)
Time Latitude Longitude Altitude Speed Heading
2026-05-04 18:32 -34.55858 -58.41330 28 ft 0 kts 266°
2026-05-04 19:12 -34.55856 -58.41282 28 ft 4 kts 267°
2026-05-04 19:12 -34.55856 -58.41252 28 ft 3 kts 280°
2026-05-04 19:13 -34.55863 -58.41231 28 ft 2 kts 301°
2026-05-04 19:13 -34.55869 -58.41220 28 ft 2 kts 307°
2026-05-04 19:13 -34.55874 -58.41213 28 ft 0 kts 309°
2026-05-04 19:16 -34.55873 -58.41214 28 ft 0 kts 309°
2026-05-04 19:16 -34.55867 -58.41223 28 ft 3 kts 307°
2026-05-04 19:16 -34.55861 -58.41260 28 ft 5 kts 255°
2026-05-04 19:17 -34.55881 -58.41288 28 ft 5 kts 219°
2026-05-04 19:17 -34.55910 -58.41304 28 ft 4 kts 182°
2026-05-04 19:17 -34.55931 -58.41287 28 ft 4 kts 123°
2026-05-04 19:17 -34.55946 -58.41260 28 ft 4 kts 125°
2026-05-04 19:18 -34.55963 -58.41231 28 ft 4 kts 127°
2026-05-04 19:18 -34.55985 -58.41197 28 ft 7 kts 127°
2026-05-04 19:18 -34.56018 -58.41143 28 ft 9 kts 127°
2026-05-04 19:18 -34.56061 -58.41073 28 ft 11 kts 127°
2026-05-04 19:19 -34.56108 -58.40997 28 ft 11 kts 127°
2026-05-04 19:19 -34.56153 -58.40920 28 ft 11 kts 117°
2026-05-04 19:19 -34.56173 -58.40829 28 ft 11 kts 105°
2026-05-04 19:19 -34.56211 -58.40747 28 ft 11 kts 124°
2026-05-04 19:20 -34.56254 -58.40670 28 ft 11 kts 124°
2026-05-04 19:20 -34.56297 -58.40592 27 ft 11 kts 124°
2026-05-04 19:20 -34.56344 -58.40515 27 ft 11 kts 133°
2026-05-04 19:20 -34.56404 -58.40452 27 ft 11 kts 140°
2026-05-04 19:21 -34.56466 -58.40390 27 ft 11 kts 140°
2026-05-04 19:21 -34.56533 -58.40365 27 ft 11 kts 198°
2026-05-04 19:21 -34.56553 -58.40441 27 ft 12 kts 295°
2026-05-04 19:21 -34.56491 -58.40558 28 ft 24 kts 303°
2026-05-04 19:22 -34.56287 -58.40925 27 ft 85 kts 304°
2026-05-04 19:22 -34.55843 -58.41719 27 ft 139 kts 304°
2026-05-04 19:22 -34.55228 -58.42805 165 ft 167 kts 305°
2026-05-04 19:22 -34.54574 -58.43940 848 ft 162 kts 308°
2026-05-04 19:23 -34.53694 -58.44823 1374 ft 166 kts 335°
2026-05-04 19:23 -34.52609 -58.45274 2003 ft 165 kts 347°
2026-05-04 19:23 -34.51840 -58.45344 2333 ft 170 kts
2026-05-04 19:23 -34.50449 -58.44367 2859 ft 188 kts 56°
2026-05-04 19:24 -34.50167 -58.43322 2981 ft 207 kts 87°
2026-05-04 19:24 -34.50607 -58.41637 3361 ft 214 kts 129°
2026-05-04 19:24 -34.51570 -58.40283 3809 ft 220 kts 132°
2026-05-04 19:24 -34.52878 -58.39124 3831 ft 242 kts 164°
2026-05-04 19:25 -34.54474 -58.38572 4414 ft 240 kts 162°
2026-05-04 19:25 -34.56097 -58.38031 4880 ft 246 kts 174°
2026-05-04 19:25 -34.57852 -58.37636 5292 ft 259 kts 171°
2026-05-04 19:25 -34.59660 -58.37307 5835 ft 266 kts 181°
2026-05-04 19:26 -34.61545 -58.37263 6312 ft 276 kts 185°
2026-05-04 19:26 -34.63495 -58.37341 6748 ft 286 kts 187°
2026-05-04 19:26 -34.65493 -58.37489 7255 ft 289 kts 188°
2026-05-04 19:26 -34.67505 -58.37667 7891 ft 289 kts 188°
2026-05-04 19:27 -34.69510 -58.37856 8436 ft 291 kts 188°
2026-05-04 19:27 -34.71540 -58.38049 9023 ft 292 kts 187°
2026-05-04 19:27 -34.73556 -58.38236 9575 ft 293 kts 187°
2026-05-04 19:27 -34.75620 -58.38414 10052 ft 298 kts 187°
2026-05-04 19:28 -34.77748 -58.38592 10203 ft 314 kts 187°
2026-05-04 19:28 -34.79971 -58.38778 10379 ft 328 kts 187°
2026-05-04 19:28 -34.82295 -58.38971 10550 ft 341 kts 187°
2026-05-04 19:28 -34.84713 -58.39172 10703 ft 354 kts 187°
2026-05-04 19:29 -34.87240 -58.39379 10872 ft 366 kts 187°
2026-05-04 19:29 -34.89775 -58.39582 11267 ft 370 kts 187°
2026-05-04 19:29 -34.92356 -58.39782 11792 ft 371 kts 187°
2026-05-04 19:29 -34.94952 -58.39983 12353 ft 371 kts 188°
2026-05-04 19:30 -34.97528 -58.40185 12818 ft 373 kts 188°
2026-05-04 19:30 -35.00109 -58.40392 13276 ft 376 kts 188°
2026-05-04 19:30 -35.02730 -58.40604 13823 ft 378 kts 189°
2026-05-04 19:30 -35.05367 -58.40819 14307 ft 379 kts 189°
2026-05-04 19:31 -35.07995 -58.41033 14805 ft 380 kts 189°
2026-05-04 19:31 -35.10656 -58.41249 15261 ft 383 kts 189°
2026-05-04 19:31 -35.13309 -58.41465 15719 ft 385 kts 189°
2026-05-04 19:31 -35.15990 -58.41683 16217 ft 386 kts 189°
2026-05-04 19:32 -35.18709 -58.41903 16680 ft 389 kts 190°
2026-05-04 19:32 -35.21418 -58.42123 17120 ft 391 kts 190°
2026-05-04 19:32 -35.24128 -58.42342 17589 ft 393 kts 190°
2026-05-04 19:32 -35.26858 -58.42562 18066 ft 394 kts 190°
2026-05-04 19:33 -35.29587 -58.42783 18457 ft 397 kts 190°
2026-05-04 19:33 -35.32379 -58.43010 18862 ft 398 kts 190°
2026-05-04 19:33 -35.35154 -58.43236 19278 ft 400 kts 190°
2026-05-04 19:33 -35.37917 -58.43460 19666 ft 401 kts 191°
2026-05-04 19:34 -35.40728 -58.43689 20032 ft 403 kts 191°
2026-05-04 19:34 -35.43515 -58.43915 20394 ft 405 kts 191°
2026-05-04 19:34 -35.46342 -58.44143 20783 ft 406 kts 191°
2026-05-04 19:34 -35.49171 -58.44372 21167 ft 408 kts 191°
2026-05-04 19:35 -35.52013 -58.44602 21532 ft 410 kts 191°
2026-05-04 19:35 -35.54851 -58.44832 21876 ft 412 kts 191°
2026-05-04 19:35 -35.57750 -58.45069 22234 ft 414 kts 191°
2026-05-04 19:35 -35.60594 -58.45300 22589 ft 415 kts 191°
2026-05-04 19:36 -35.63498 -58.45536 22950 ft 417 kts 191°
2026-05-04 19:36 -35.66381 -58.45771 23273 ft 419 kts 191°
2026-05-04 19:36 -35.69303 -58.46010 23580 ft 421 kts 191°
2026-05-04 19:36 -35.72261 -58.46251 23895 ft 422 kts 191°
2026-05-04 19:37 -35.75120 -58.46797 24185 ft 411 kts 205°
2026-05-04 19:37 -35.77674 -58.48282 24493 ft 403 kts 216°
2026-05-04 19:37 -35.80053 -58.50093 24766 ft 403 kts 217°
2026-05-04 19:37 -35.82421 -58.51971 25034 ft 405 kts 218°
2026-05-04 19:38 -35.84777 -58.53859 25356 ft 406 kts 218°
2026-05-04 19:38 -35.87147 -58.55757 25674 ft 407 kts 218°
2026-05-04 19:38 -35.89531 -58.57648 25953 ft 408 kts 217°
2026-05-04 19:38 -35.91933 -58.59524 26266 ft 409 kts 217°
2026-05-04 19:39 -35.94333 -58.61375 26692 ft 406 kts 217°
2026-05-04 19:39 -35.96737 -58.63216 27171 ft 403 kts 217°
2026-05-04 19:39 -35.99113 -58.65034 27615 ft 400 kts 217°
2026-05-04 19:39 -36.01451 -58.66825 27995 ft 398 kts 217°
2026-05-04 19:40 -36.03805 -58.68634 28347 ft 397 kts 217°
2026-05-04 19:40 -36.06144 -58.70436 28704 ft 396 kts 217°
2026-05-04 19:40 -36.08487 -58.72244 29084 ft 394 kts 217°
2026-05-04 19:40 -36.10801 -58.74033 29452 ft 392 kts 217°
2026-05-04 19:41 -36.13119 -58.75828 29826 ft 389 kts 218°
2026-05-04 19:41 -36.15388 -58.77592 30165 ft 387 kts 218°
2026-05-04 19:41 -36.17667 -58.79363 30455 ft 385 kts 218°
2026-05-04 19:41 -36.19910 -58.81106 30724 ft 384 kts 218°
2026-05-04 19:42 -36.22170 -58.82862 30983 ft 382 kts 218°
2026-05-04 19:42 -36.24445 -58.84629 31246 ft 381 kts 218°
2026-05-04 19:42 -36.26675 -58.86362 31531 ft 379 kts 218°
2026-05-04 19:42 -36.28899 -58.88091 31797 ft 377 kts 218°
2026-05-04 19:43 -36.31114 -58.89815 32055 ft 375 kts 219°
2026-05-04 19:43 -36.33331 -58.91543 32271 ft 375 kts 219°
2026-05-04 19:43 -36.35522 -58.93251 32480 ft 374 kts 219°
2026-05-04 19:43 -36.37725 -58.94970 32724 ft 372 kts 219°
2026-05-04 19:44 -36.39911 -58.96676 32951 ft 370 kts 219°
2026-05-04 19:44 -36.42077 -58.98367 33176 ft 369 kts 219°
2026-05-04 19:44 -36.44249 -59.00063 33421 ft 367 kts 219°
2026-05-04 19:44 -36.46424 -59.01764 33650 ft 365 kts 220°
2026-05-04 19:45 -36.48565 -59.03444 33773 ft 366 kts 220°
2026-05-04 19:45 -36.52886 -59.06855 33858 ft 371 kts 220°
2026-05-04 19:46 -36.57273 -59.10312 33873 ft 374 kts 219°
2026-05-04 19:46 -36.61665 -59.13756 33869 ft 370 kts 219°
2026-05-04 19:47 -36.66020 -59.17175 33873 ft 368 kts 220°
2026-05-04 19:47 -36.70342 -59.20580 33871 ft 368 kts 220°
2026-05-04 19:48 -36.74670 -59.23998 33867 ft 369 kts 220°
2026-05-04 19:48 -36.79020 -59.27435 33866 ft 370 kts 220°
2026-05-04 19:49 -36.83372 -59.30879 33865 ft 370 kts 220°
2026-05-04 19:49 -36.87718 -59.34333 33866 ft 368 kts 220°
2026-05-04 19:50 -36.92014 -59.37748 33863 ft 367 kts 220°
2026-05-04 19:50 -36.96339 -59.41187 33859 ft 367 kts 220°
2026-05-04 19:51 -37.00622 -59.44596 33858 ft 367 kts 220°
2026-05-04 19:51 -37.04953 -59.48045 33853 ft 368 kts 220°
2026-05-04 19:52 -37.09255 -59.51475 33860 ft 368 kts 220°
2026-05-04 19:52 -37.13563 -59.54913 33855 ft 368 kts 220°
2026-05-04 19:53 -37.17894 -59.58371 33860 ft 366 kts 220°
2026-05-04 19:53 -37.22096 -59.61880 33857 ft 363 kts 221°
2026-05-04 19:54 -37.26277 -59.65465 33852 ft 364 kts 222°
2026-05-04 19:54 -37.30464 -59.69040 33856 ft 363 kts 221°
2026-05-04 19:55 -37.34662 -59.72600 33854 ft 363 kts 221°
2026-05-04 19:55 -37.38834 -59.76134 33854 ft 363 kts 221°
2026-05-04 19:56 -37.43025 -59.79687 33848 ft 363 kts 221°
2026-05-04 19:56 -37.47209 -59.83242 33846 ft 362 kts 221°
2026-05-04 19:57 -37.51383 -59.86793 33841 ft 362 kts 222°
2026-05-04 19:57 -37.55538 -59.90339 33845 ft 361 kts 222°
2026-05-04 19:58 -37.59689 -59.93899 33844 ft 361 kts 222°
2026-05-04 19:58 -37.63158 -59.96872 33843 ft 361 kts 222°
2026-05-04 19:59 -37.67314 -60.00432 33843 ft 360 kts 222°
2026-05-04 19:59 -37.71449 -60.03975 33841 ft 360 kts 222°
2026-05-04 20:00 -37.75583 -60.07522 33842 ft 359 kts 222°
2026-05-04 20:00 -37.79711 -60.11069 33843 ft 359 kts 222°
2026-05-04 20:01 -37.83863 -60.14641 33846 ft 359 kts 222°
2026-05-04 20:01 -37.87974 -60.18182 33842 ft 359 kts 223°
2026-05-04 20:02 -37.92075 -60.21735 33839 ft 358 kts 223°
2026-05-04 20:02 -37.96205 -60.25318 33832 ft 358 kts 223°
2026-05-04 20:03 -38.00312 -60.28876 33834 ft 359 kts 223°
2026-05-04 20:03 -38.04455 -60.32464 33827 ft 360 kts 223°
2026-05-04 20:04 -38.08583 -60.36041 33831 ft 361 kts 223°
2026-05-04 20:04 -38.12725 -60.39631 33829 ft 359 kts 223°
2026-05-04 20:05 -38.16851 -60.43211 33828 ft 358 kts 223°
2026-05-04 20:05 -38.20960 -60.46734 33830 ft 359 kts 222°
2026-05-04 20:06 -38.25122 -60.50266 33828 ft 360 kts 222°
2026-05-04 20:06 -38.29301 -60.53805 33826 ft 361 kts 222°
2026-05-04 20:07 -38.33495 -60.57362 33827 ft 362 kts 222°
2026-05-04 20:07 -38.37663 -60.60903 33821 ft 360 kts 222°
2026-05-04 20:08 -38.41853 -60.64472 33822 ft 359 kts 222°
2026-05-04 20:08 -38.46001 -60.68011 33821 ft 360 kts 222°
2026-05-04 20:09 -38.50167 -60.71573 33821 ft 361 kts 222°
2026-05-04 20:09 -38.54357 -60.75170 33820 ft 361 kts 222°
2026-05-04 20:10 -38.58512 -60.78745 33821 ft 362 kts 222°
2026-05-04 20:10 -38.62697 -60.82341 33823 ft 361 kts 222°
2026-05-04 20:11 -38.66870 -60.85924 33822 ft 360 kts 222°
2026-05-04 20:11 -38.71016 -60.89490 33823 ft 360 kts 222°
2026-05-04 20:12 -38.75196 -60.93098 33819 ft 362 kts 222°
2026-05-04 20:12 -38.79369 -60.96699 33826 ft 363 kts 222°
2026-05-04 20:13 -38.83565 -61.00322 33822 ft 362 kts 222°
2026-05-04 20:13 -38.87713 -61.03913 33821 ft 359 kts 223°
2026-05-04 20:14 -38.91844 -61.07509 33822 ft 358 kts 223°
2026-05-04 20:14 -38.95979 -61.11110 33824 ft 359 kts 223°
2026-05-04 20:15 -39.00092 -61.14689 33821 ft 359 kts 223°
2026-05-04 20:15 -39.04237 -61.18296 33825 ft 358 kts 223°
2026-05-04 20:16 -39.08376 -61.21902 33822 ft 358 kts 223°
2026-05-04 20:16 -39.12486 -61.25488 33823 ft 358 kts 223°
2026-05-04 20:17 -39.16604 -61.29087 33822 ft 358 kts 223°
2026-05-04 20:17 -39.20724 -61.32694 33817 ft 358 kts 223°
2026-05-04 20:18 -39.24831 -61.36308 33819 ft 356 kts 223°
2026-05-04 20:18 -39.28914 -61.39904 33822 ft 354 kts 223°
2026-05-04 20:19 -39.32987 -61.43491 33812 ft 354 kts 223°
2026-05-04 20:19 -39.37037 -61.47059 33812 ft 355 kts 223°
2026-05-04 20:20 -39.41123 -61.50659 33813 ft 355 kts 223°
2026-05-04 20:20 -39.45202 -61.54259 33809 ft 355 kts 223°
2026-05-04 20:21 -39.49282 -61.57865 33809 ft 355 kts 223°
2026-05-04 20:21 -39.55403 -61.63288 33809 ft 355 kts 224°
2026-05-04 20:22 -39.59470 -61.66926 33803 ft 355 kts 224°
2026-05-04 20:22 -39.63516 -61.70540 33803 ft 355 kts 224°
2026-05-04 20:23 -39.67584 -61.74161 33803 ft 353 kts 224°
2026-05-04 20:23 -39.71633 -61.77763 33796 ft 352 kts 224°
2026-05-04 20:24 -39.75675 -61.81364 33802 ft 353 kts 224°
2026-05-04 20:24 -39.79706 -61.84959 33796 ft 353 kts 224°
2026-05-04 20:25 -39.83768 -61.88583 33797 ft 354 kts 224°
2026-05-04 20:25 -39.87799 -61.92256 33795 ft 351 kts 227°
2026-05-04 20:26 -39.91526 -61.96290 33791 ft 347 kts 229°
2026-05-04 20:26 -39.95203 -62.00345 33792 ft 346 kts 229°
2026-05-04 20:27 -39.98904 -62.04361 33791 ft 345 kts 229°
2026-05-04 20:27 -40.02618 -62.08343 33787 ft 346 kts 228°
2026-05-04 20:28 -40.06316 -62.12295 33784 ft 345 kts 228°
2026-05-04 20:28 -40.10029 -62.16269 33787 ft 345 kts 229°
2026-05-04 20:29 -40.13743 -62.20253 33785 ft 345 kts 229°
2026-05-04 20:29 -40.17449 -62.24239 33779 ft 345 kts 229°
2026-05-04 20:30 -40.21144 -62.28224 33777 ft 343 kts 229°
2026-05-04 20:30 -40.24806 -62.32198 33774 ft 341 kts 229°
2026-05-04 20:31 -40.28457 -62.36163 33773 ft 341 kts 229°
2026-05-04 20:31 -40.32092 -62.40111 33777 ft 341 kts 229°
2026-05-04 20:32 -40.35752 -62.44086 33770 ft 341 kts 229°
2026-05-04 20:32 -40.39411 -62.48061 33769 ft 342 kts 229°
2026-05-04 20:33 -40.43072 -62.52046 33763 ft 341 kts 229°
2026-05-04 20:33 -40.46724 -62.56024 33767 ft 340 kts 229°
2026-05-04 20:34 -40.50330 -62.59958 33765 ft 338 kts 229°
2026-05-04 20:34 -40.53941 -62.63916 33765 ft 338 kts 230°
2026-05-04 20:35 -40.57554 -62.67898 33767 ft 339 kts 230°
2026-05-04 20:35 -40.61183 -62.71893 33758 ft 340 kts 230°
2026-05-04 20:36 -40.64816 -62.75889 33761 ft 340 kts 230°
2026-05-04 20:36 -40.68452 -62.79887 33754 ft 340 kts 230°
2026-05-04 20:37 -40.72080 -62.83882 33755 ft 339 kts 230°
2026-05-04 20:37 -40.75668 -62.87838 33753 ft 338 kts 230°
2026-05-04 20:38 -40.79269 -62.91818 33751 ft 338 kts 230°
2026-05-04 20:38 -40.82883 -62.95820 33751 ft 339 kts 230°
2026-05-04 20:39 -40.86509 -62.99813 33750 ft 340 kts 229°
2026-05-04 20:39 -40.90354 -63.03566 33750 ft 346 kts 226°
2026-05-04 20:40 -40.94323 -63.07159 33754 ft 345 kts 226°
2026-05-04 20:40 -40.98250 -63.10714 33752 ft 343 kts 226°
2026-05-04 20:41 -41.02167 -63.14311 33756 ft 343 kts 226°
2026-05-04 20:41 -41.06088 -63.17943 33755 ft 343 kts 226°
2026-05-04 20:42 -41.09346 -63.20968 33755 ft 343 kts 226°
2026-05-04 20:42 -41.13264 -63.24611 33757 ft 344 kts 226°
2026-05-04 20:43 -41.17181 -63.28252 33757 ft 344 kts 227°
2026-05-04 20:43 -41.21102 -63.31901 33756 ft 344 kts 227°
2026-05-04 20:44 -41.25016 -63.35560 33761 ft 344 kts 227°
2026-05-04 20:44 -41.28918 -63.39215 33758 ft 342 kts 227°
2026-05-04 20:45 -41.32780 -63.42828 33758 ft 340 kts 227°
2026-05-04 20:45 -41.36656 -63.46459 33762 ft 341 kts 227°
2026-05-04 20:46 -41.40537 -63.50100 33759 ft 341 kts 227°
2026-05-04 20:46 -41.44420 -63.53743 33759 ft 341 kts 227°
2026-05-04 20:47 -41.48295 -63.57382 33758 ft 341 kts 227°
2026-05-04 20:47 -41.52158 -63.61012 33755 ft 338 kts 227°
2026-05-04 20:48 -41.55998 -63.64626 33752 ft 337 kts 228°
2026-05-04 20:48 -41.59795 -63.68230 33753 ft 337 kts 228°
2026-05-04 20:49 -41.63621 -63.71865 33749 ft 338 kts 228°
2026-05-04 20:49 -41.67458 -63.75502 33748 ft 338 kts 228°
2026-05-04 20:50 -41.71297 -63.79140 33744 ft 338 kts 228°
2026-05-04 20:50 -41.75124 -63.82767 33744 ft 336 kts 228°
2026-05-04 20:51 -41.78931 -63.86380 33737 ft 334 kts 228°
2026-05-04 20:51 -41.82692 -63.89963 33739 ft 334 kts 229°
2026-05-04 20:52 -41.86476 -63.93573 33732 ft 334 kts 229°
2026-05-04 20:52 -41.90266 -63.97193 33737 ft 334 kts 229°
2026-05-04 20:53 -41.94041 -64.00817 33738 ft 332 kts 229°
2026-05-04 20:53 -41.97789 -64.04411 33735 ft 329 kts 229°
2026-05-04 20:54 -42.01501 -64.07972 33734 ft 326 kts 229°
2026-05-04 20:54 -42.05168 -64.11497 33727 ft 325 kts 229°
2026-05-04 20:55 -42.08842 -64.15033 33726 ft 324 kts 229°
2026-05-04 20:55 -42.12505 -64.18560 33727 ft 323 kts 229°
2026-05-04 20:56 -42.16153 -64.22076 33722 ft 322 kts 230°
2026-05-04 20:56 -42.19788 -64.25584 33720 ft 320 kts 230°
2026-05-04 20:57 -42.23403 -64.29078 33717 ft 319 kts 230°
2026-05-04 20:57 -42.26993 -64.32568 33715 ft 317 kts 230°
2026-05-04 20:58 -42.30570 -64.36055 33717 ft 317 kts 230°
2026-05-04 20:58 -42.34151 -64.39540 33718 ft 317 kts 230°
2026-05-04 20:59 -42.37705 -64.42998 33713 ft 316 kts 230°
2026-05-04 20:59 -42.41276 -64.46472 33711 ft 316 kts 230°
2026-05-04 21:00 -42.44839 -64.49945 33707 ft 315 kts 230°
2026-05-04 21:00 -42.48396 -64.53417 33706 ft 315 kts 230°
2026-05-04 21:01 -42.51951 -64.56895 33704 ft 315 kts 230°
2026-05-04 21:01 -42.55486 -64.60355 33704 ft 315 kts 230°
2026-05-04 21:02 -42.59037 -64.63840 33703 ft 314 kts 231°
2026-05-04 21:02 -42.62560 -64.67313 33708 ft 312 kts 231°
2026-05-04 21:03 -42.66064 -64.70769 33701 ft 311 kts 231°
2026-05-04 21:03 -42.69571 -64.74232 33692 ft 312 kts 231°
2026-05-04 21:04 -42.73087 -64.77704 33693 ft 312 kts 231°
2026-05-04 21:04 -42.76601 -64.81174 33689 ft 312 kts 231°
2026-05-04 21:05 -42.80119 -64.84652 33692 ft 312 kts 231°
2026-05-04 21:05 -42.83636 -64.88132 33684 ft 312 kts 231°
2026-05-04 21:06 -42.87139 -64.91602 33683 ft 311 kts 231°
2026-05-04 21:06 -42.90604 -64.95045 33680 ft 312 kts 231°
2026-05-04 21:07 -42.94082 -64.98538 33679 ft 312 kts 231°
2026-05-04 21:07 -42.97589 -65.02068 33682 ft 314 kts 231°
2026-05-04 21:08 -43.01117 -65.05601 33684 ft 315 kts 231°
2026-05-04 21:08 -43.04635 -65.09108 33690 ft 314 kts 230°
2026-05-04 21:09 -43.08157 -65.12612 33687 ft 312 kts 230°
2026-05-04 21:09 -43.11674 -65.16119 33688 ft 314 kts 230°
2026-05-04 21:10 -43.15211 -65.19656 33694 ft 316 kts 230°
2026-05-04 21:10 -43.18773 -65.23215 33697 ft 317 kts 230°
2026-05-04 21:11 -43.22477 -65.26643 33695 ft 326 kts 226°
2026-05-04 21:11 -43.26415 -65.29771 33698 ft 327 kts 225°
2026-05-04 21:12 -43.30387 -65.32834 33703 ft 327 kts 225°
2026-05-04 21:12 -43.34347 -65.35904 33692 ft 329 kts 225°
2026-05-04 21:13 -43.38335 -65.39027 33682 ft 330 kts 225°
2026-05-04 21:13 -43.42336 -65.42177 33675 ft 331 kts 225°
2026-05-04 21:14 -43.46316 -65.45321 33667 ft 332 kts 225°
2026-05-04 21:14 -43.50336 -65.48504 33663 ft 333 kts 224°
2026-05-04 21:15 -43.54349 -65.51684 33664 ft 334 kts 224°
2026-05-04 21:15 -43.58389 -65.54895 33661 ft 335 kts 224°
2026-05-04 21:16 -43.62431 -65.58129 33653 ft 337 kts 224°
2026-05-04 21:16 -43.66499 -65.61384 33659 ft 340 kts 224°
2026-05-04 21:17 -43.70617 -65.64674 33661 ft 342 kts 224°
2026-05-04 21:17 -43.74738 -65.67966 33661 ft 343 kts 224°
2026-05-04 21:18 -43.78880 -65.71277 33650 ft 343 kts 224°
2026-05-04 21:18 -43.83004 -65.74580 33654 ft 342 kts 224°
2026-05-04 21:19 -43.87123 -65.77892 33656 ft 344 kts 224°
2026-05-04 21:19 -43.91254 -65.81222 33657 ft 345 kts 224°
2026-05-04 21:20 -43.95418 -65.84576 33656 ft 347 kts 224°
2026-05-04 21:20 -43.99625 -65.87961 33651 ft 348 kts 223°
2026-05-04 21:21 -44.03915 -65.91202 33651 ft 353 kts 221°
2026-05-04 21:21 -44.08284 -65.94311 33648 ft 354 kts 221°
2026-05-04 21:22 -44.12680 -65.97444 33641 ft 353 kts 221°
2026-05-04 21:22 -44.17052 -66.00600 33645 ft 354 kts 221°
2026-05-04 21:23 -44.21413 -66.03776 33644 ft 356 kts 221°
2026-05-04 21:23 -44.25810 -66.06986 33640 ft 358 kts 221°
2026-05-04 21:24 -44.30223 -66.10208 33640 ft 359 kts 221°
2026-05-04 21:24 -44.34659 -66.13449 33627 ft 360 kts 221°
2026-05-04 21:25 -44.39099 -66.16698 33623 ft 360 kts 221°
2026-05-04 21:25 -44.43550 -66.19977 33625 ft 360 kts 221°
2026-05-04 21:26 -44.47985 -66.23247 33349 ft 364 kts 221°
2026-05-04 21:26 -44.49502 -66.24370 33033 ft 367 kts 220°
2026-05-04 21:26 -44.51751 -66.26029 32523 ft 367 kts 220°
2026-05-04 21:27 -44.54013 -66.27691 31981 ft 367 kts 220°
2026-05-04 21:27 -44.56289 -66.29364 31391 ft 368 kts 221°
2026-05-04 21:27 -44.58561 -66.31037 30783 ft 370 kts 220°
2026-05-04 21:27 -44.60850 -66.32728 30159 ft 373 kts 220°
2026-05-04 21:28 -44.63134 -66.34420 29526 ft 377 kts 220°
2026-05-04 21:28 -44.65465 -66.36148 28831 ft 377 kts 220°
2026-05-04 21:28 -44.67796 -66.37869 28167 ft 373 kts 220°
2026-05-04 21:28 -44.70086 -66.39558 27548 ft 369 kts 220°
2026-05-04 21:29 -44.72331 -66.41217 26941 ft 366 kts 220°
2026-05-04 21:29 -44.74580 -66.42883 26350 ft 363 kts 220°
2026-05-04 21:29 -44.76787 -66.44527 25786 ft 362 kts 220°
2026-05-04 21:29 -44.79013 -66.46188 25205 ft 360 kts 219°
2026-05-04 21:30 -44.81225 -66.47842 24621 ft 358 kts 219°
2026-05-04 21:30 -44.83420 -66.49486 24041 ft 357 kts 219°
2026-05-04 21:30 -44.85619 -66.51131 23452 ft 356 kts 219°
2026-05-04 21:30 -44.87797 -66.52758 22788 ft 354 kts 219°
2026-05-04 21:31 -44.92127 -66.55993 21521 ft 347 kts 218°
2026-05-04 21:31 -44.94231 -66.57569 20933 ft 346 kts 218°
2026-05-04 21:31 -44.96370 -66.59177 20368 ft 345 kts 217°
2026-05-04 21:32 -44.98499 -66.60777 19801 ft 345 kts 217°
2026-05-04 21:32 -45.00595 -66.62352 19218 ft 345 kts 217°
2026-05-04 21:32 -45.02730 -66.63962 18628 ft 344 kts 216°
2026-05-04 21:32 -45.04832 -66.65567 18001 ft 342 kts 216°
2026-05-04 21:33 -45.06906 -66.67150 17306 ft 340 kts 216°
2026-05-04 21:33 -45.08991 -66.68729 16630 ft 337 kts 215°
2026-05-04 21:33 -45.11052 -66.70281 16002 ft 333 kts 214°
2026-05-04 21:33 -45.13084 -66.71809 15378 ft 329 kts 214°
2026-05-04 21:34 -45.15104 -66.73326 14766 ft 326 kts 214°
2026-05-04 21:34 -45.17092 -66.74822 14165 ft 322 kts 214°
2026-05-04 21:34 -45.19069 -66.76311 13575 ft 319 kts 214°
2026-05-04 21:34 -45.20999 -66.77768 12952 ft 315 kts 213°
2026-05-04 21:35 -45.22919 -66.79219 12342 ft 311 kts 213°
2026-05-04 21:35 -45.24824 -66.80660 11769 ft 306 kts 213°
2026-05-04 21:35 -45.26707 -66.82086 11177 ft 302 kts 213°
2026-05-04 21:35 -45.28535 -66.83471 10627 ft 300 kts 213°
2026-05-04 21:36 -45.30360 -66.84856 10125 ft 295 kts 212°
2026-05-04 21:36 -45.32142 -66.86202 9973 ft 279 kts 212°
2026-05-04 21:36 -45.33802 -66.87453 9819 ft 265 kts 212°
2026-05-04 21:36 -45.35408 -66.88665 9667 ft 252 kts 213°
2026-05-04 21:37 -45.36905 -66.89797 9554 ft 240 kts 213°
2026-05-04 21:37 -45.38360 -66.90902 9477 ft 240 kts 213°
2026-05-04 21:37 -45.39868 -66.92060 9218 ft 248 kts 213°
2026-05-04 21:37 -45.41382 -66.93229 8764 ft 251 kts 213°
2026-05-04 21:38 -45.42929 -66.94417 8339 ft 249 kts 213°
2026-05-04 21:38 -45.44449 -66.95581 7917 ft 247 kts 213°
2026-05-04 21:38 -45.45961 -66.96737 7513 ft 246 kts 213°
2026-05-04 21:38 -45.47451 -66.97874 7103 ft 245 kts 213°
2026-05-04 21:39 -45.48963 -66.99029 6695 ft 243 kts 213°
2026-05-04 21:39 -45.50441 -67.00158 6301 ft 242 kts 213°
2026-05-04 21:39 -45.51921 -67.01289 5895 ft 242 kts 213°
2026-05-04 21:39 -45.53394 -67.02416 5480 ft 241 kts 213°
2026-05-04 21:40 -45.54847 -67.03530 5246 ft 234 kts 213°
2026-05-04 21:40 -45.56263 -67.04617 5033 ft 227 kts 214°
2026-05-04 21:40 -45.57664 -67.05696 4815 ft 226 kts 214°
2026-05-04 21:40 -45.59022 -67.06746 4706 ft 224 kts 214°
2026-05-04 21:41 -45.60411 -67.07824 4510 ft 228 kts 214°
2026-05-04 21:41 -45.61805 -67.08905 4252 ft 229 kts 214°
2026-05-04 21:41 -45.63197 -67.09979 3991 ft 226 kts 214°
2026-05-04 21:41 -45.64564 -67.11029 3884 ft 218 kts 214°
2026-05-04 21:42 -45.65875 -67.12028 3961 ft 207 kts 214°
2026-05-04 21:42 -45.67109 -67.12972 3835 ft 198 kts 214°
2026-05-04 21:42 -45.68319 -67.13908 3600 ft 196 kts 214°
2026-05-04 21:42 -45.69506 -67.14826 3313 ft 195 kts 215°
2026-05-04 21:43 -45.70708 -67.15754 3015 ft 194 kts 215°
2026-05-04 21:43 -45.71884 -67.16664 2719 ft 194 kts 215°
2026-05-04 21:43 -45.73056 -67.17571 2466 ft 186 kts 215°
2026-05-04 21:43 -45.74175 -67.18438 2210 ft 179 kts 218°
2026-05-04 21:44 -45.74910 -67.19673 2075 ft 157 kts 257°
2026-05-04 21:44 -45.75115 -67.21187 2023 ft 154 kts 258°
2026-05-04 21:44 -45.75384 -67.22672 2012 ft 154 kts 257°
2026-05-04 21:44 -45.75613 -67.24187 2004 ft 157 kts 260°
2026-05-04 21:45 -45.75805 -67.25723 1984 ft 156 kts 259°
2026-05-04 21:45 -45.75996 -67.27240 1979 ft 155 kts 259°
2026-05-04 21:45 -45.76199 -67.28770 1993 ft 158 kts 259°
2026-05-04 21:45 -45.76399 -67.30316 1993 ft 160 kts 259°
2026-05-04 21:46 -45.76605 -67.31883 2005 ft 155 kts 258°
2026-05-04 21:46 -45.76790 -67.33295 1873 ft 140 kts 259°
2026-05-04 21:46 -45.76966 -67.34627 1577 ft 131 kts 260°
2026-05-04 21:46 -45.77126 -67.35880 1352 ft 126 kts 260°
2026-05-04 21:47 -45.77289 -67.37117 1183 ft 125 kts 260°
2026-05-04 21:47 -45.77458 -67.38368 1057 ft 129 kts 261°
2026-05-04 21:47 -45.77620 -67.39618 974 ft 126 kts 262°
2026-05-04 21:47 -45.77775 -67.40870 740 ft 132 kts 262°
2026-05-04 21:48 -45.77952 -67.42181 591 ft 134 kts 261°
2026-05-04 21:48 -45.78116 -67.43469 391 ft 127 kts 262°
2026-05-04 21:48 -45.78282 -67.44719 255 ft 129 kts 260°
2026-05-04 21:48 -45.78440 -67.45934 202 ft 116 kts 260°
2026-05-04 21:49 -45.78557 -67.46821 198 ft 54 kts 259°
2026-05-04 21:49 -45.78609 -67.47208 199 ft 25 kts 259°
2026-05-04 21:49 -45.78630 -67.47301 201 ft 8 kts 231°
2026-05-04 21:49 -45.78679 -67.47312 200 ft 7 kts 162°
2026-05-04 21:50 -45.78724 -67.47289 202 ft 6 kts 160°
2026-05-04 21:50 -45.78765 -67.47267 201 ft 6 kts 160°
2026-05-04 21:50 -45.78808 -67.47245 206 ft 7 kts 161°
2026-05-04 21:50 -45.78855 -67.47222 200 ft 8 kts 161°
2026-05-04 21:51 -45.78906 -67.47191 208 ft 8 kts 135°
2026-05-04 21:51 -45.78921 -67.47116 205 ft 8 kts 90°
2026-05-04 21:51 -45.78920 -67.47028 197 ft 9 kts 87°
2026-05-04 21:51 -45.78915 -67.46931 197 ft 10 kts 85°
2026-05-04 21:52 -45.78910 -67.46841 201 ft 8 kts 85°
2026-05-04 21:52 -45.78910 -67.46804 203 ft 1 kts 112°
2026-05-04 21:52 -45.78914 -67.46799 211 ft 0 kts 140°
2026-05-04 21:52 -45.78921 -67.46798 211 ft 1 kts 180°
2026-05-04 21:53 -45.78928 -67.46801 206 ft 1 kts 198°
2026-05-04 21:53 -45.78937 -67.46809 207 ft 2 kts 218°
2026-05-04 21:53 -45.78943 -67.46816 211 ft 0 kts 218°